FW2178 Weather Reports


Display with metric or nautical units.
time (UTC)temp
F
wind
direction
speed
MPH
gust
MPH
rain 1hr
in
rain 24hr
in
rain mn
in
humidity
%
barometer
mb
20260901014335 67 147 0.0 11.0 0.00 0.00 0.00 74 1007.1
20260901014122 67 133 1.0 21.0 0.00 0.00 0.00 71 1007.1
20260901013333 67 146 0.0 15.0 0.00 0.00 0.00 75 1007.1
20260901012832 66 128 0.0 15.0 0.00 0.00 0.00 74 1007.2
20260901012337 66 129 0.0 0.0 0.00 0.00 0.00 75 1007.1
20260901012115 67 128 0.0 0.0 0.00 0.00 0.00 74 1007.0
20260901011333 67 129 0.0 0.0 0.00 0.00 0.00 73 1007.3
20260901010835 67 141 0.0 0.0 0.00 0.00 0.00 74 1007.2
20260901010333 67 131 0.0 0.0 0.00 0.00 0.00 72 1007.1
20260901010127 67 131 0.0 2.0 0.00 0.00 0.00 71 1007.2
20260901005337 68 131 0.0 6.0 0.00 0.00 0.00 69 1007.0
20260901004832 67 135 1.0 15.0 0.00 0.00 0.00 71 1006.9
20260901004332 67 128 1.0 15.0 0.00 0.00 0.00 71 1007.0
20260901003835 67 136 0.0 4.0 0.00 0.00 0.00 72 1006.9
20260901003332 67 135 0.0 4.0 0.00 0.00 0.00 70 1007.1
20260901002831 68 154 0.0 6.0 0.00 0.00 0.00 72 1007.2
20260901002337 68 121 0.0 15.0 0.00 0.00 0.00 70 1007.1
20260901002122 69 134 0.0 16.0 0.00 0.00 0.00 69 1007.1
20260901001332 69 132 0.0 16.0 0.00 0.00 0.00 65 1007.3
20260901000835 68 119 0.0 9.0 0.00 0.00 0.00 64 1007.1
20260901000332 69 122 0.0 0.0 0.00 0.00 0.00 69 1007.2
20260831235831 69 124 0.0 0.0 0.00 0.00 0.00 70 1007.6
20260831235336 70 123 0.0 4.0 0.00 0.00 0.00 64 1007.4
20260831234832 70 131 0.0 4.0 0.00 0.00 0.00 65 1007.7
20260831234332 70 105 0.0 8.0 0.00 0.00 0.00 59 1007.5
20260831234151 70 125 0.0 8.0 0.00 0.00 0.00 63 1007.5
20260831233332 69 128 0.0 14.0 0.00 0.00 0.00 71 1007.8
20260831232831 69 128 0.0 25.0 0.00 0.00 0.00 72 1007.7
20260831232335 70 127 0.0 25.0 0.00 0.00 0.00 64 1007.6
20260831232118 69 121 0.0 0.0 0.00 0.00 0.00 69 1007.8
20260831231332 70 121 0.0 3.0 0.00 0.00 0.00 69 1007.7
20260831230835 70 121 0.0 7.0 0.00 0.00 0.00 63 1007.9
20260831230333 70 104 1.0 11.0 0.00 0.00 0.00 63 1007.8
20260831225831 70 128 0.0 11.0 0.00 0.00 0.00 64 1007.8
20260831225337 70 96 0.0 8.0 0.00 0.00 0.00 64 1007.9
20260831224831 70 110 0.0 8.0 0.00 0.00 0.00 65 1008.2
20260831224332 70 83 0.0 7.0 0.00 0.00 0.00 66 1008.1
20260831223836 70 114 0.0 7.0 0.00 0.00 0.00 71 1008.1
20260831223332 70 116 2.0 6.0 0.00 0.00 0.00 61 1008.2
20260831222831 70 132 1.0 6.0 0.00 0.00 0.00 62 1008.1
20260831222642 70 137 0.0 4.0 0.00 0.00 0.00 61 1008.3
20260831221831 70 140 0.0 8.0 0.00 0.00 0.00 66 1008.3
20260831221659 70 108 0.0 24.0 0.00 0.00 0.00 64 1008.3
20260831221653 70 130 0.0 3.0 0.00 0.00 0.00 67 1008.4
20260831220337 70 129 1.0 24.0 0.00 0.00 0.00 60 1008.4
20260831215831 69 121 1.0 16.0 0.00 0.00 0.00 63 1008.5
20260831215334 69 58 0.0 7.0 0.00 0.00 0.00 69 1008.7
20260831214837 70 124 0.0 0.0 0.00 0.00 0.00 69 1008.6
20260831214332 69 143 0.0 4.0 0.00 0.00 0.00 61 1008.7
20260831213832 69 132 0.0 7.0 0.00 0.00 0.00 72 1008.9
20260831213637 69 131 1.0 7.0 0.00 0.00 0.00 65 1009.0
20260831212831 70 102 0.0 10.0 0.00 0.00 0.00 63 1009.0
20260831212332 70 132 0.0 10.0 0.00 0.00 0.00 64 1008.7
20260831211835 70 144 0.0 4.0 0.00 0.00 0.00 60 1008.8
20260831211331 0 0.0 0.0 0.00 0.00 0.00
20260831211109 0 0.0 0.0 0.00 0.00 0.00
20260831210622 0 0.0 0.0 0.00 0.00 0.00
20260831205835 0 0.0 0.0 0.00 0.00 0.00
20260831205332 0 0.0 0.0 0.00 0.00 0.00
20260831204840 0 0.0 0.0 0.00 0.00 0.00
20260831204332 0 0.0 0.0 0.00 0.00 0.00
20260831204057 0 0.0 0.0 0.00 0.00 0.00
20260831203336 0 0.0 0.0 0.00 0.00 0.00
20260831202834 0 0.0 0.0 0.00 0.00 0.00
20260831202331 0 0.0 0.0 0.00 0.00 0.00
20260831201836 0 0.0 0.0 0.00 0.00 0.00
20260831201331 0 0.0 0.0 0.00 0.00 0.00
20260831201136 0 0.0 0.0 0.00 0.00 0.00
20260831200603 0 0.0 0.0 0.00 0.00 0.00
20260831200103 0 0.0 0.0 0.00 0.00 0.00
20260831195845 0 0.0 0.0 0.00 0.00 0.00
20260831195102 0 0.0 0.0 0.00 0.00 0.00
20260831194602 0 0.0 0.0 0.00 0.00 0.00
20260831194102 0 0.0 0.0 0.00 0.00 0.00
20260831193602 0 0.0 0.0 0.00 0.00 0.00
20260831193108 0 0.0 0.0 0.00 0.00 0.00
20260831192554 0 0.0 0.0 0.00 0.00 0.00
20260831192052 0 0.0 0.0 0.00 0.00 0.00
20260831191549 0 0.0 0.0 0.00 0.00 0.00
20260831191051 0 0.0 0.0 0.00 0.00 0.00
20260831190549 0 0.0 0.0 0.00 0.00 0.00
20260831190043 0 0.0 0.0 0.00 0.00 0.00
20260831185542 0 0.0 0.0 0.00 0.00 0.00
20260831185039 0 0.0 0.0 0.00 0.00 0.00
20260831184539 0 0.0 0.0 0.00 0.00 0.00
20260831184034 0 0.0 0.0 0.00 0.00 0.00
20260831183531 0 0.0 0.0 0.00 0.00 0.00
20260831183312 0 0.0 0.0 0.00 0.00 0.00
20260831182531 0 0.0 0.0 0.00 0.00 0.00
20260831182032 0 0.0 0.0 0.00 0.00 0.00
20260831181826 0 0.0 0.0 0.00 0.00 0.00
20260831181030 0 0.0 0.0 0.00 0.00 0.00
20260831180531 0 0.0 0.0 0.00 0.00 0.00
20260831180356 0 0.0 0.0 0.00 0.00 0.00
20260831175532 0 0.0 0.0 0.00 0.00 0.00
20260831175032 0 0.0 0.0 0.00 0.00 0.00
20260831174532 0 0.0 0.0 0.00 0.00 0.00
20260831174030 0 0.0 0.0 0.00 0.00 0.00
20260831173530 0 0.0 0.0 0.00 0.00 0.00
20260831173030 0 0.0 0.0 0.00 0.00 0.00
20260831172556 0 0.0 0.0 0.00 0.00 0.00
20260831172546 0 0.0 0.0 0.00 0.00 0.00
20260831171530 0 0.0 0.0 0.00 0.00 0.00
20260831171030 0 0.0 0.0 0.00 0.00 0.00
20260831170531 0 0.0 0.0 0.00 0.00 0.00
20260831170030 0 0.0 0.0 0.00 0.00 0.00
20260831165818 0 0.0 0.0 0.00 0.00 0.00
20260831165236 0 0.0 0.0 0.00 0.00 0.00
20260831164030 59 154 0.0 3.0 0.00 0.00 0.00 86 1012.2
20260831163758 59 146 0.0 4.0 0.00 0.00 0.00 85 1012.2
20260831163031 59 155 0.0 4.0 0.00 0.00 0.00 86 1011.9
20260831162528 58 140 0.0 0.0 0.00 0.00 0.00 86 1012.1
20260831162324 58 125 0.0 0.0 0.00 0.00 0.00 90 1012.0
20260831161529 57 125 0.0 3.0 0.00 0.00 0.00 92 1012.1
20260831161028 56 115 0.0 3.0 0.00 0.00 0.00 97 1012.3
20260831160529 56 140 0.0 3.0 0.00 0.00 0.00 99 1012.2
20260831160029 56 136 0.0 0.0 0.00 0.00 0.00 99 1012.4
20260831155823 56 133 0.0 0.0 0.00 0.00 0.00 99 1012.1
20260831155029 55 133 0.0 0.0 0.00 0.00 0.00 99 1012.3
20260831154529 55 133 0.0 0.0 0.00 0.00 0.00 99 1012.4
20260831154028 55 133 0.0 0.0 0.00 0.00 0.00 99 1012.3
20260831153529 55 133 0.0 0.0 0.00 0.00 0.00 99 1012.4
20260831153029 55 133 0.0 0.0 0.00 0.00 0.00 99 1012.5
20260831152534 55 132 0.0 0.0 0.00 0.00 0.00 99 1012.6
20260831152033 54 132 0.0 0.0 0.00 0.00 0.00 99 1012.5
20260831151528 54 132 0.0 0.0 0.00 0.00 0.00 99 1012.5
20260831151028 54 132 0.0 0.0 0.00 0.00 0.00 99 1012.6
20260831150528 54 132 0.0 0.0 0.00 0.00 0.00 99 1012.6
20260831150056 53 132 0.0 0.0 0.00 0.00 0.00 99 1012.8
20260831145529 53 132 0.0 0.0 0.00 0.00 0.00 99 1012.3
20260831145029 53 132 0.0 0.0 0.00 0.00 0.00 99 1012.6
20260831144529 53 132 0.0 0.0 0.00 0.00 0.00 99 1012.8
20260831144030 53 132 0.0 0.0 0.00 0.00 0.00 99 1012.4
20260831143526 53 132 0.0 0.0 0.00 0.00 0.00 99 1012.5
20260831143023 53 132 0.0 0.0 0.00 0.00 0.00 99 1012.5
20260831142525 53 132 0.0 0.0 0.00 0.00 0.00 99 1012.4
20260831142023 53 132 0.0 0.0 0.00 0.00 0.00 99 1012.6
20260831141811 53 132 0.0 0.0 0.00 0.00 0.00 99 1012.4
20260831141024 52 132 0.0 0.0 0.00 0.00 0.00 99 1012.3
20260831140525 52 132 0.0 0.0 0.00 0.00 0.00 99 1012.5
20260831140023 52 132 0.0 0.0 0.00 0.00 0.00 99 1012.4
20260831135814 53 132 0.0 0.0 0.00 0.00 0.00 99 1012.5
20260831135023 52 132 0.0 0.0 0.00 0.00 0.00 99 1012.5
20260831134526 52 132 0.0 0.0 0.00 0.00 0.00 99 1012.6
20260831134024 52 132 0.0 0.0 0.00 0.00 0.00 99 1012.3
20260831133524 52 132 0.0 0.0 0.00 0.00 0.00 99 1012.4
20260831133023 52 132 0.0 0.0 0.00 0.00 0.00 99 1012.2
20260831132810 52 132 0.0 0.0 0.00 0.00 0.00 99 1012.3
20260831132309 52 132 0.0 0.0 0.00 0.00 0.00 99 1012.4
20260831131524 52 132 0.0 0.0 0.00 0.00 0.00 99 1012.1
20260831131024 52 132 0.0 0.0 0.00 0.00 0.00 99 1012.3
20260831130525 52 132 0.0 0.0 0.00 0.00 0.00 99 1012.4
20260831130322 52 132 0.0 0.0 0.00 0.00 0.00 99 1012.6
20260831125525 52 132 0.0 0.0 0.00 0.00 0.00 99 1012.6
20260831125025 52 132 0.0 0.0 0.00 0.00 0.00 99 1012.5
20260831124525 52 132 0.0 0.0 0.00 0.00 0.00 99 1012.4
20260831124024 52 132 0.0 0.0 0.00 0.00 0.00 99 1012.6
20260831123817 52 132 0.0 0.0 0.00 0.00 0.00 99 1012.7
20260831123024 52 132 0.0 0.0 0.00 0.00 0.00 99 1012.7
20260831122814 52 132 0.0 0.0 0.00 0.00 0.00 99 1012.6
20260831122023 52 132 0.0 0.0 0.00 0.00 0.00 99 1012.8
20260831121525 52 132 0.0 0.0 0.00 0.00 0.00 99 1012.8
20260831121023 52 132 0.0 0.0 0.00 0.00 0.00 99 1012.7
20260831120823 52 132 0.0 0.0 0.00 0.00 0.00 99 1012.7
20260831120024 53 132 0.0 0.0 0.00 0.00 0.00 99 1013.0
20260831115526 53 132 0.0 0.0 0.00 0.00 0.00 99 1012.7
20260831115310 53 132 0.0 0.0 0.00 0.00 0.00 99 1013.0
20260831114524 53 132 0.0 0.0 0.00 0.00 0.00 99 1013.0
20260831114025 53 132 0.0 0.0 0.00 0.00 0.00 99 1013.0
20260831113525 53 132 0.0 0.0 0.00 0.00 0.00 99 1012.9
20260831113024 53 132 0.0 0.0 0.00 0.00 0.00 99 1013.0
20260831112816 53 132 0.0 0.0 0.00 0.00 0.00 99 1013.2
20260831112025 53 132 0.0 0.0 0.00 0.00 0.00 99 1013.2
20260831111525 53 132 0.0 0.0 0.00 0.00 0.00 99 1013.2
20260831111024 53 132 0.0 0.0 0.00 0.00 0.00 98 1013.2
20260831110524 53 132 0.0 0.0 0.00 0.00 0.00 98 1013.4
20260831110024 53 132 0.0 0.0 0.00 0.00 0.00 98 1013.2
20260831105525 53 132 0.0 0.0 0.00 0.00 0.00 98 1013.2
20260831105026 53 132 0.0 0.0 0.00 0.00 0.00 98 1013.2
20260831104524 53 132 0.0 0.0 0.00 0.00 0.00 98 1013.3
20260831104315 53 132 0.0 0.0 0.00 0.00 0.00 98 1013.2
20260831103526 53 132 0.0 0.0 0.00 0.00 0.00 98 1013.7
20260831103025 53 133 0.0 0.0 0.00 0.00 0.00 98 1013.4
20260831102528 53 133 0.0 0.0 0.00 0.00 0.00 98 1013.6
20260831102023 54 133 0.0 0.0 0.00 0.00 0.00 98 1013.5
20260831101525 53 133 0.0 0.0 0.00 0.00 0.00 98 1013.8
20260831101023 53 133 0.0 0.0 0.00 0.00 0.00 98 1013.7
20260831100529 54 133 0.0 0.0 0.00 0.00 0.00 98 1013.6
20260831100029 54 133 0.0 0.0 0.00 0.00 0.00 98 1013.8
20260831095529 54 133 0.0 0.0 0.00 0.00 0.00 97 1014.1
20260831095023 54 133 0.0 0.0 0.00 0.00 0.00 97 1014.0
20260831094524 54 133 0.0 0.0 0.00 0.00 0.00 97 1014.0
20260831094026 53 133 0.0 0.0 0.00 0.00 0.00 97 1013.9
20260831093523 54 133 0.0 0.0 0.00 0.00 0.00 97 1014.2
20260831093027 54 133 0.0 0.0 0.00 0.00 0.00 97 1014.2
20260831092525 54 133 0.0 0.0 0.00 0.00 0.00 97 1014.4
20260831092309 54 133 0.0 0.0 0.00 0.00 0.00 96 1014.3
20260831091526 54 133 0.0 0.0 0.00 0.00 0.00 96 1014.4
20260831091025 54 133 0.0 0.0 0.00 0.00 0.00 96 1014.2
20260831090523 54 133 0.0 0.0 0.00 0.00 0.00 96 1014.3
20260831090313 54 133 0.0 0.0 0.00 0.00 0.00 95 1014.4
20260831085812 54 133 0.0 0.0 0.00 0.00 0.00 95 1014.6
20260831085024 54 133 0.0 0.0 0.00 0.00 0.00 95 1014.4
20260831084525 54 133 0.0 0.0 0.00 0.00 0.00 95 1014.6
20260831084024 54 133 0.0 0.0 0.00 0.00 0.00 95 1014.5
20260831083525 54 133 0.0 0.0 0.00 0.00 0.00 94 1014.5
20260831083023 54 133 0.0 0.0 0.00 0.00 0.00 94 1014.8
20260831082524 54 133 0.0 0.0 0.00 0.00 0.00 94 1014.8
20260831082023 55 133 0.0 0.0 0.00 0.00 0.00 94 1014.9
20260831081818 54 133 0.0 0.0 0.00 0.00 0.00 94 1014.8
20260831081023 54 133 0.0 0.0 0.00 0.00 0.00 93 1014.8
20260831080525 54 133 0.0 0.0 0.00 0.00 0.00 93 1015.1
20260831080024 54 133 0.0 0.0 0.00 0.00 0.00 93 1014.8
20260831075524 54 133 0.0 0.0 0.00 0.00 0.00 93 1014.8
20260831075023 54 133 0.0 0.0 0.00 0.00 0.00 92 1015.1
20260831074525 54 133 0.0 0.0 0.00 0.00 0.00 92 1014.9
20260831074024 54 133 0.0 0.0 0.00 0.00 0.00 92 1014.9
20260831073525 55 133 0.0 0.0 0.00 0.00 0.00 92 1014.9
20260831073319 54 133 0.0 0.0 0.00 0.00 0.00 91 1014.9
20260831072524 55 133 0.0 0.0 0.00 0.00 0.00 91 1014.8
20260831072025 55 133 0.0 0.0 0.00 0.00 0.00 91 1014.9
20260831071525 55 133 0.0 0.0 0.00 0.00 0.00 90 1014.9
20260831071025 55 133 0.0 0.0 0.00 0.00 0.00 90 1015.0
20260831070818 55 133 0.0 0.0 0.00 0.00 0.00 90 1015.0
20260831070024 55 133 0.0 0.0 0.00 0.00 0.00 90 1015.2
20260831065525 55 133 0.0 0.0 0.00 0.00 0.00 90 1015.6
20260831065024 55 133 0.0 0.0 0.00 0.00 0.00 89 1015.2
20260831064525 55 133 0.0 0.0 0.00 0.00 0.00 89 1015.4
20260831064023 55 133 0.0 0.0 0.00 0.00 0.00 89 1015.6
20260831063525 55 133 0.0 0.0 0.00 0.00 0.00 89 1015.6
20260831063321 55 133 0.0 0.0 0.00 0.00 0.00 89 1015.4
20260831062524 56 133 0.0 0.0 0.00 0.00 0.00 88 1015.6
20260831062025 56 133 0.0 0.0 0.00 0.00 0.00 88 1015.4
20260831061525 56 133 0.0 0.0 0.00 0.00 0.00 88 1015.6
20260831061025 56 133 0.0 0.0 0.00 0.00 0.00 88 1015.7
20260831060524 56 133 0.0 0.0 0.00 0.00 0.00 87 1015.8
20260831060024 56 133 0.0 0.0 0.00 0.00 0.00 87 1015.9
20260831055813 56 133 0.0 0.0 0.00 0.00 0.00 87 1015.8
20260831055025 56 133 0.0 0.0 0.00 0.00 0.00 87 1016.0
20260831054525 56 133 0.0 0.0 0.00 0.00 0.00 86 1016.0
20260831054024 56 133 0.0 0.0 0.00 0.00 0.00 86 1016.1
20260831053525 56 133 0.0 0.0 0.00 0.00 0.00 86 1016.2
20260831053024 56 133 0.0 0.0 0.00 0.00 0.00 86 1016.2
20260831052524 56 133 0.0 0.0 0.00 0.00 0.00 86 1016.2
20260831052119 57 133 0.0 0.0 0.00 0.00 0.00 85 1016.3
20260831052053 57 133 0.0 0.0 0.00 0.00 0.00 85 1016.3
20260831051024 57 133 0.0 0.0 0.00 0.00 0.00 84 1016.4
20260831050524 57 133 0.0 0.0 0.00 0.00 0.00 84 1016.5
20260831050028 57 133 0.0 0.0 0.00 0.00 0.00 84 1016.4
20260831045528 57 133 0.0 0.0 0.00 0.00 0.00 83 1016.4
20260831045026 57 133 0.0 0.0 0.00 0.00 0.00 83 1016.3
20260831044525 57 133 0.0 0.0 0.00 0.00 0.00 83 1016.4
20260831044024 57 133 0.0 0.0 0.00 0.00 0.00 83 1016.3
20260831043524 58 133 0.0 0.0 0.00 0.00 0.00 83 1016.3
20260831043023 58 133 0.0 0.0 0.00 0.00 0.00 82 1016.4
20260831042525 58 133 0.0 0.0 0.00 0.00 0.00 82 1016.7
20260831042316 58 133 0.0 0.0 0.00 0.00 0.00 81 1016.2
20260831041525 58 133 0.0 0.0 0.00 0.00 0.00 82 1016.5
20260831041024 58 133 0.0 0.0 0.00 0.00 0.00 82 1016.4
20260831040525 58 133 0.0 0.0 0.00 0.00 0.00 81 1016.4
20260831040023 59 133 0.0 0.0 0.00 0.00 0.00 81 1016.4
20260831035525 59 133 0.0 0.0 0.00 0.00 0.00 81 1016.5
20260831035025 59 133 0.0 0.0 0.00 0.00 0.00 80 1016.6
20260831034524 59 133 0.0 0.0 0.00 0.00 0.00 79 1016.4
20260831034025 59 133 0.0 0.0 0.00 0.00 0.00 78 1016.5
20260831033811 59 133 0.0 0.0 0.00 0.00 0.00 79 1016.5
20260831033025 60 133 0.0 0.0 0.00 0.00 0.00 78 1016.6
20260831032524 60 133 0.0 0.0 0.00 0.00 0.00 77 1016.4
20260831032024 60 133 0.0 0.0 0.00 0.00 0.00 77 1016.3
20260831031525 60 133 0.0 0.0 0.00 0.00 0.00 76 1016.5
20260831031023 60 133 0.0 0.0 0.00 0.00 0.00 76 1016.5
20260831030524 61 133 0.0 0.0 0.00 0.00 0.00 75 1016.5
20260831030024 61 133 0.0 0.0 0.00 0.00 0.00 76 1016.4
20260831025527 61 133 0.0 2.0 0.00 0.00 0.00 76 1016.3
20260831025025 61 133 0.0 1.0 0.00 0.00 0.00 76 1016.5
20260831024815 62 133 0.0 0.0 0.00 0.00 0.00 74 1016.4
20260831024027 62 133 0.0 0.0 0.00 0.00 0.00 73 1016.4
20260831024021 62 133 0.0 0.0 0.00 0.00 0.00 74 1016.3
20260831023649 62 133 0.0 0.0 0.00 0.00 0.00 72 1016.5
20260831022024 63 133 0.0 0.0 0.00 0.00 0.00 74 1016.5
20260831021524 63 133 0.0 0.0 0.00 0.00 0.00 71 1016.4
20260831021025 64 133 0.0 0.0 0.00 0.00 0.00 72 1016.5
20260831020524 64 133 0.0 0.0 0.00 0.00 0.00 74 1016.6
20260831020332 64 133 0.0 0.0 0.00 0.00 0.00 68 1016.5
20260831015524 65 133 0.0 0.0 0.00 0.00 0.00 70 1016.5
20260831015023 65 133 0.0 0.0 0.00 0.00 0.00 69 1016.6